Balmaceda, Chile

9:50 PM -04 on May 22, 2017 (GMT -0400)
Balmaceda

Weather History for SCBA - February, 2014

Change the Weather History Date:

Sunday, February 2, 2014

  Actual Average Record
Temperature  
Mean Temperature 46 °F -  
Max Temperature 56 °F - - ()
Min Temperature 37 °F - - ()
Degree Days  
Heating Degree Days 18    
Moisture  
Dew Point 35 °F    
Average Humidity 64    
Maximum Humidity 87    
Minimum Humidity 36    
Precipitation  
Precipitation 0.00 in 0.03 in - ()
Sea Level Pressure  
Sea Level Pressure 29.60 in    
Wind  
Wind Speed 18 mph ()    
Max Wind Speed 26 mph    
Max Gust Speed 38 mph    
Visibility 6.1 miles    
Events Rain    
T = Trace of Precipitation, MM = Missing Value Source: Averaged Metar Reports

Daily Weather History Graph

Daily Weather History Graph

Search for Another Location

Airport or City:

Trip Planner

Search our weather history database for the weather conditions in past years. The results will help you decide how hot, cold, wet, or windy it might be!

Date:

Astronomy

Feb. 02, 2014 Rise Set
Actual Time 6:42 AM -03 9:17 PM -03
Civil Twilight 6:08 AM -03 9:51 PM -03
Nautical Twilight 5:26 AM -03 10:33 PM -03
Astronomical Twilight 4:36 AM -03 11:22 PM -03
Moon 10:14 AM -03 (2/2) 10:33 PM -03 (2/2)
Length of Visible Light 15h 42m
Length of Day
14h 34m
Waxing Crescent, 11% of the Moon is Illuminated
Feb 2
Waxing Crescent
Feb 6
First Quarter
Feb 14
Full
Feb 22
Last Quarter
Mar 1
New

Hourly Weather History & Observations

Time (-03) Temp. Windchill Dew Point Humidity Pressure Visibility Wind Dir Wind Speed Gust Speed Precip Events Conditions
12:00 AM 42 °F - 38 °F 79% 29.51 in 25 mi WNW 20.7 mph - -   Clear
12:00 AM 42.8 °F 34.0 °F 37.4 °F 81% 29.44 in - WNW 20.7 mph - N/A   Clear
1:00 AM 42.8 °F 34.5 °F 39.2 °F 87% 29.47 in 5.0 mi WNW 18.4 mph - N/A Rain Light Rain Showers
2:00 AM 41.0 °F 33.5 °F 35.6 °F 81% 29.50 in - WNW 13.8 mph - N/A   Clear
3:00 AM 40 °F - 35 °F 75% 29.57 in 31 mi NW 19.6 mph - -   Clear
3:00 AM 41.0 °F 31.9 °F 35.6 °F 81% 29.50 in - NW 19.6 mph - N/A   Clear
4:00 AM 41.0 °F 31.4 °F 33.8 °F 76% 29.47 in - NW 21.9 mph - N/A   Clear
5:00 AM 39.2 °F 30.5 °F 33.8 °F 81% 29.53 in - NW 16.1 mph - N/A   Clear
6:00 AM 40 °F - 33 °F 69% 29.63 in 31 mi NW 15.0 mph - -  
6:00 AM 39.2 °F 30.8 °F 33.8 °F 81% 29.56 in - NW 15.0 mph - N/A   Clear
7:00 AM 37.4 °F 28.5 °F 32.0 °F 81% 29.59 in - NW 15.0 mph - N/A   Clear
8:00 AM 41.0 °F 32.2 °F 33.8 °F 76% 29.59 in - WNW 18.4 mph - N/A   Clear
9:00 AM 44 °F - 35 °F 61% 29.66 in 25 mi WNW 20.7 mph - -   Scattered Clouds
9:00 AM 44.6 °F 36.4 °F 35.6 °F 71% 29.62 in 6.2 mi WNW 20.7 mph - N/A   Partly Cloudy
10:00 AM 46.4 °F 38.5 °F 35.6 °F 66% 29.62 in 6.2 mi WNW 21.9 mph - N/A   Scattered Clouds
11:00 AM 48.2 °F - 35.6 °F 62% 29.62 in 6.2 mi WNW 21.9 mph 34.5 mph N/A   Scattered Clouds
12:00 PM 49 °F - 34 °F 44% 29.65 in 31 mi NW 20.7 mph - -   Partly Cloudy
12:00 PM 48.2 °F - 33.8 °F 58% 29.62 in 6.2 mi NW 20.7 mph 32.2 mph N/A   Scattered Clouds
1:00 PM 50.0 °F - 35.6 °F 58% 29.62 in 6.2 mi NW 20.7 mph - N/A   Mostly Cloudy
2:00 PM 51.8 °F - 33.8 °F 50% 29.62 in 6.2 mi NW 24.2 mph 35.7 mph N/A   Mostly Cloudy
3:00 PM 53 °F - 34 °F 36% 29.64 in 25 mi NW 26.5 mph - -   Mostly Cloudy
3:00 PM 53.6 °F - 33.8 °F 47% 29.62 in 6.2 mi NW 26.5 mph - N/A   Mostly Cloudy
4:00 PM 53.6 °F - 35.6 °F 51% 29.62 in 6.2 mi WNW 25.3 mph - N/A   Scattered Clouds
5:00 PM 53.6 °F - 35.6 °F 51% 29.62 in 6.2 mi NW 25.3 mph 38.0 mph N/A   Scattered Clouds
6:00 PM 52 °F - 35 °F 40% 29.64 in 25 mi NW 23.0 mph - -   Partly Cloudy
6:00 PM 51.8 °F - 35.6 °F 54% 29.62 in 6.2 mi NW 23.0 mph - N/A   Scattered Clouds
7:00 PM 50.0 °F - 35.6 °F 58% 29.62 in - NW 23.0 mph - N/A   Clear
8:00 PM 48.2 °F - 33.8 °F 58% 29.65 in - WNW 21.9 mph - N/A   Clear
9:00 PM 47 °F - 35 °F 53% 29.70 in 31 mi NW 21.9 mph - -  
9:00 PM 46.4 °F 38.5 °F 35.6 °F 66% 29.65 in - NW 21.9 mph - N/A   Clear
10:00 PM 46.4 °F 38.5 °F 33.8 °F 62% 29.68 in - NW 21.9 mph - N/A   Clear
11:00 PM 46.4 °F 39.5 °F 33.8 °F 62% 29.68 in - NW 17.3 mph - N/A   Clear